Location: Allison Elementary School
(34.0784°N, 117.7317°W)
Time: 10:39:20
(UTC+00:00)

Cosmos 1891 Rocket - Pass Details

Date: 15 November 2019
Orbit: 933 x 1019 km, 82.9° (Epoch: 08 December)

Event Time Altitude Azimuth Distance (km) Brightness Sun altitude
Rises 02:01:49 0° 355° (N) 3,727 7.5 -15.5°
Reaches altitude 10° 02:04:24 10° 357° (N) 2,763 6.8 -16.0°
Maximum altitude 02:10:44 76° 84° (E) 1,008 4.4 -17.3°
Drops below altitude 10° 02:16:54 10° 169° (S) 2,688 6.8 -18.5°
Sets 02:19:21 0° 171° (S) 3,619 7.5 -19.1°
